This is the latest recevied weather packets stored in our database for station/object K5NWZ. If no packets are shown the sender has not sent any weather packets the latest 10 day(s).
| Time | Temp. | Humidity | Pressure | Rain* | Wind** | Luminosity | Snow |
|---|---|---|---|---|---|---|---|
| 1777896099 | 5° C | 69% | 1017.7 hPa | 0 mm | - | 5 W/m² | - |
| 1777895797 | 5° C | 69% | 1017.8 hPa | 0 mm | - | 3 W/m² | - |
| 1777895493 | 5.56° C | 68% | 1017.8 hPa | 0 mm | - | 2 W/m² | - |
| 1777895191 | 5.56° C | 67% | 1017.8 hPa | 0 mm | - | 1 W/m² | - |
| 1777894888 | 5.56° C | 68% | 1017.8 hPa | 0 mm | - | 0 W/m² | - |
| 1777894586 | 5.56° C | 71% | 1018 hPa | 0 mm | - | 0 W/m² | - |
| 1777894283 | 5.56° C | 74% | 1018 hPa | 0 mm | - | 0 W/m² | - |
| 1777893980 | 6.11° C | 76% | 1018 hPa | 0 mm | - | 0 W/m² | - |
| 1777893676 | 5.56° C | 77% | 1018.2 hPa | 0 mm | - | 0 W/m² | - |
| 1777893372 | 5.56° C | 76% | 1018.2 hPa | 0 mm | - | 0 W/m² | - |
| 1777893068 | 5.56° C | 73% | 1018.2 hPa | 0 mm | - | 0 W/m² | - |
| 1777892766 | 5.56° C | 73% | 1018.2 hPa | 0 mm | - | 0 W/m² | - |
| 1777892462 | 5° C | 74% | 1018.1 hPa | 0 mm | - | 0 W/m² | - |
| 1777892158 | 5° C | 74% | 1018 hPa | 0 mm | - | 0 W/m² | - |
| 1777891855 | 5° C | 74% | 1018.1 hPa | 0 mm | - | 0 W/m² | - |
| 1777891552 | 5° C | 75% | 1018.2 hPa | 0 mm | - | 0 W/m² | - |
| 1777891248 | 5° C | 75% | 1018.2 hPa | 0 mm | - | 0 W/m² | - |
| 1777890948 | 5° C | 73% | 1018.2 hPa | 0 mm | - | 0 W/m² | - |
| 1777890643 | 5.56° C | 73% | 1018.2 hPa | 0 mm | - | 0 W/m² | - |
| 1777890339 | 5.56° C | 72% | 1018.4 hPa | 0 mm | - | 0 W/m² | - |
| 1777890035 | 5.56° C | 71% | 1018.3 hPa | 0 mm | - | 0 W/m² | - |
| 1777889733 | 5.56° C | 69% | 1018.5 hPa | 0 mm | - | 0 W/m² | - |
| 1777889431 | 5° C | 70% | 1018.3 hPa | 0 mm | - | 0 W/m² | - |
| 1777889128 | 5.56° C | 69% | 1018.4 hPa | 0 mm | - | 0 W/m² | - |
| 1777888826 | 5.56° C | 69% | 1018.3 hPa | 0 mm | - | 0 W/m² | - |
* Rain latest hour (hover to see other rain measurements)
** Current wind speed in m/s (hover to see current wind gust speed)